Previsão horária em Jugow

Hoje, 19 Junho, Sábado

Tempo Temperatura Precipitação Vento Pressão Humidade
00:00 +20°C° 0 mm 2 m/s 740 mmHg 71%
01:00 +19°C° 0 mm 2 m/s 740 mmHg 71%
02:00 +19°C° 0 mm 2 m/s 740 mmHg 72%
03:00 +19°C° 0 mm 2 m/s 739 mmHg 72%
04:00 +19°C° 0 mm 2 m/s 739 mmHg 73%
05:00 +21°C° 0 mm 2 m/s 739 mmHg 69%
06:00 +24°C° 0 mm 2 m/s 740 mmHg 66%
07:00 +25°C° 0 mm 2 m/s 740 mmHg 62%
08:00 +27°C° 0 mm 2 m/s 740 mmHg 57%
09:00 +29°C° 0 mm 2 m/s 740 mmHg 52%
10:00 +30°C° 0 mm 2 m/s 740 mmHg 47%
11:00 +31°C° 0 mm 2 m/s 739 mmHg 45%
12:00 +31°C° 0 mm 2 m/s 739 mmHg 43%
13:00 +32°C° 0 mm 2 m/s 739 mmHg 42%
14:00 +32°C° 0 mm 2 m/s 739 mmHg 44%
15:00 +31°C° 0 mm 2 m/s 739 mmHg 46%
16:00 +31°C° 0 mm 2 m/s 738 mmHg 49%
17:00 +30°C° 0 mm 2 m/s 738 mmHg 56%
18:00 +28°C° 0 mm 2 m/s 738 mmHg 63%
19:00 +27°C° 0 mm 2 m/s 738 mmHg 70%
20:00 +26°C° 0.1 mm 1 m/s 738 mmHg 74%
21:00 +24°C° 0.1 mm 1 m/s 738 mmHg 78%
22:00 +23°C° 0.1 mm 1 m/s 738 mmHg 82%
23:00 +22°C° 0.1 mm 1 m/s 738 mmHg 85%

Amanhã, 20 Junho, Domingo

Tempo Temperatura Precipitação Vento Pressão Humidade
00:00 +21°C° 0.1 mm 1 m/s 738 mmHg 87%
01:00 +20°C° 0.1 mm 1 m/s 738 mmHg 90%
02:00 +20°C° 0 mm 1 m/s 738 mmHg 90%
03:00 +20°C° 0 mm 1 m/s 738 mmHg 90%
04:00 +20°C° 0 mm 1 m/s 737 mmHg 90%
05:00 +21°C° 0 mm 1 m/s 737 mmHg 86%
06:00 +23°C° 0 mm 1 m/s 737 mmHg 82%
07:00 +24°C° 0 mm 2 m/s 737 mmHg 77%
08:00 +26°C° 0 mm 2 m/s 737 mmHg 70%
09:00 +27°C° 0 mm 3 m/s 737 mmHg 63%
10:00 +29°C° 0 mm 3 m/s 737 mmHg 56%
11:00 +30°C° 0 mm 3 m/s 737 mmHg 54%
12:00 +30°C° 0 mm 4 m/s 737 mmHg 51%
13:00 +32°C° 0 mm 4 m/s 736 mmHg 49%
14:00 +32°C° 0 mm 4 m/s 736 mmHg 49%
15:00 +32°C° 0 mm 4 m/s 735 mmHg 50%
16:00 +32°C° 0 mm 4 m/s 735 mmHg 51%
17:00 +29°C° 0 mm 3 m/s 735 mmHg 58%
18:00 +28°C° 0 mm 3 m/s 735 mmHg 66%
19:00 +26°C° 0 mm 2 m/s 734 mmHg 73%
20:00 +25°C° 0 mm 2 m/s 734 mmHg 76%
21:00 +24°C° 0 mm 2 m/s 734 mmHg 79%
22:00 +21°C° 0 mm 2 m/s 734 mmHg 82%
23:00 +21°C° 0 mm 2 m/s 734 mmHg 82%

Depois de amanhã, 21 Junho, Segunda-feira

Tempo Temperatura Precipitação Vento Pressão Humidade
00:00 +21°C° 0 mm 2 m/s 734 mmHg 83%
01:00 +20°C° 0 mm 2 m/s 733 mmHg 84%
02:00 +20°C° 0 mm 2 m/s 733 mmHg 87%
03:00 +20°C° 0 mm 1 m/s 733 mmHg 90%
04:00 +19°C° 0 mm 1 m/s 733 mmHg 93%
05:00 +20°C° 0.2 mm 1 m/s 733 mmHg 90%
06:00 +20°C° 0.2 mm 2 m/s 733 mmHg 88%
07:00 +21°C° 0.2 mm 2 m/s 733 mmHg 85%
08:00 +23°C° 0.2 mm 2 m/s 734 mmHg 82%
09:00 +24°C° 0.2 mm 2 m/s 734 mmHg 78%
10:00 +25°C° 0.2 mm 2 m/s 734 mmHg 74%
11:00 +26°C° 0.2 mm 2 m/s 734 mmHg 72%
12:00 +26°C° 0.2 mm 2 m/s 734 mmHg 71%
13:00 +27°C° 0.2 mm 2 m/s 734 mmHg 69%
14:00 +27°C° 0 mm 2 m/s 734 mmHg 64%
15:00 +28°C° 0 mm 2 m/s 734 mmHg 60%
16:00 +29°C° 0 mm 2 m/s 734 mmHg 56%
17:00 +28°C° 0 mm 2 m/s 734 mmHg 61%
18:00 +27°C° 0 mm 2 m/s 734 mmHg 67%
19:00 +26°C° 0 mm 1 m/s 734 mmHg 73%
20:00 +25°C° 0 mm 1 m/s 734 mmHg 76%
21:00 +23°C° 0 mm 1 m/s 734 mmHg 80%
22:00 +22°C° 0 mm 1 m/s 735 mmHg 83%
23:00 +21°C° 0 mm 1 m/s 735 mmHg 84%

22 Junho, Terça-feira

Tempo Temperatura Precipitação Vento Pressão Humidade
00:00 +20°C° 0 mm 2 m/s 735 mmHg 85%
01:00 +19°C° 0 mm 2 m/s 735 mmHg 87%
02:00 +19°C° 0 mm 2 m/s 735 mmHg 89%
03:00 +18°C° 0 mm 2 m/s 735 mmHg 91%
04:00 +18°C° 0 mm 2 m/s 736 mmHg 93%
05:00 +19°C° 0 mm 2 m/s 736 mmHg 89%
06:00 +20°C° 0 mm 3 m/s 736 mmHg 86%
07:00 +21°C° 0 mm 3 m/s 737 mmHg 83%
08:00 +24°C° 0 mm 3 m/s 737 mmHg 77%
09:00 +25°C° 0 mm 3 m/s 737 mmHg 72%
10:00 +26°C° 0 mm 3 m/s 738 mmHg 67%
11:00 +27°C° 0 mm 3 m/s 738 mmHg 63%
12:00 +28°C° 0 mm 3 m/s 738 mmHg 60%
13:00 +29°C° 0 mm 2 m/s 738 mmHg 57%
14:00 +29°C° 0 mm 3 m/s 738 mmHg 56%
15:00 +29°C° 0 mm 3 m/s 738 mmHg 56%
16:00 +29°C° 0 mm 3 m/s 738 mmHg 56%
17:00 +28°C° 0 mm 3 m/s 738 mmHg 62%
18:00 +27°C° 0 mm 2 m/s 738 mmHg 68%
19:00 +26°C° 0 mm 2 m/s 738 mmHg 74%
20:00 +24°C° 0 mm 2 m/s 738 mmHg 78%
21:00 +23°C° 0 mm 2 m/s 738 mmHg 82%
22:00 +20°C° 0 mm 2 m/s 737 mmHg 86%
23:00 +20°C° 0 mm 2 m/s 737 mmHg 88%

23 Junho, Quarta-feira

Tempo Temperatura Precipitação Vento Pressão Humidade
00:00 +20°C° 0 mm 2 m/s 737 mmHg 89%
01:00 +19°C° 0 mm 2 m/s 737 mmHg 91%
02:00 +20°C° 0 mm 1 m/s 737 mmHg 92%
03:00 +20°C° 0 mm 1 m/s 737 mmHg 92%
04:00 +20°C° 0 mm 1 m/s 737 mmHg 93%
05:00 +20°C° 0 mm 2 m/s 737 mmHg 89%
06:00 +23°C° 0 mm 2 m/s 737 mmHg 85%
07:00 +24°C° 0 mm 3 m/s 737 mmHg 81%
08:00 +26°C° 0 mm 3 m/s 737 mmHg 74%
09:00 +28°C° 0 mm 3 m/s 737 mmHg 67%
10:00 +30°C° 0 mm 3 m/s 737 mmHg 59%
11:00 +30°C° 0 mm 3 m/s 737 mmHg 57%
12:00 +31°C° 0 mm 3 m/s 737 mmHg 54%
13:00 +33°C° 0 mm 3 m/s 737 mmHg 52%
14:00 +33°C° 0.1 mm 3 m/s 737 mmHg 53%
15:00 +33°C° 0.1 mm 3 m/s 737 mmHg 53%
16:00 +33°C° 0.1 mm 3 m/s 736 mmHg 54%
17:00 +31°C° 0.5 mm 3 m/s 736 mmHg 61%
18:00 +29°C° 0.5 mm 3 m/s 735 mmHg 69%
19:00 +28°C° 0.5 mm 3 m/s 735 mmHg 76%
20:00 +25°C° 3.3 mm 4 m/s 735 mmHg 80%
21:00 +21°C° 3.3 mm 4 m/s 736 mmHg 85%
22:00 +17°C° 3.3 mm 5 m/s 737 mmHg 89%
23:00 +17°C° 0.4 mm 4 m/s 737 mmHg 91%

24 Junho, Quinta-feira

Tempo Temperatura Precipitação Vento Pressão Humidade
00:00 +17°C° 0.4 mm 3 m/s 738 mmHg 93%
01:00 +16°C° 0.4 mm 2 m/s 738 mmHg 95%
02:00 +16°C° 0 mm 3 m/s 739 mmHg 94%
03:00 +16°C° 0 mm 3 m/s 739 mmHg 94%
04:00 +15°C° 0 mm 4 m/s 739 mmHg 94%
05:00 +17°C° 0 mm 4 m/s 740 mmHg 90%
06:00 +17°C° 0 mm 4 m/s 740 mmHg 87%
07:00 +18°C° 0 mm 4 m/s 741 mmHg 83%
08:00 +19°C° 0 mm 4 m/s 741 mmHg 77%
09:00 +20°C° 0 mm 4 m/s 741 mmHg 71%
10:00 +21°C° 0 mm 4 m/s 742 mmHg 65%
11:00 +22°C° 0 mm 4 m/s 742 mmHg 61%
12:00 +25°C° 0 mm 3 m/s 742 mmHg 58%
13:00 +26°C° 0 mm 3 m/s 742 mmHg 55%
14:00 +26°C° 0 mm 3 m/s 742 mmHg 56%
15:00 +26°C° 0 mm 2 m/s 742 mmHg 58%
16:00 +25°C° 0 mm 2 m/s 742 mmHg 60%
17:00 +25°C° 0 mm 1 m/s 742 mmHg 65%
18:00 +24°C° 0 mm 1 m/s 742 mmHg 70%
19:00 +23°C° 0 mm 1 m/s 741 mmHg 75%
20:00 +22°C° 0 mm 1 m/s 742 mmHg 79%
21:00 +21°C° 0 mm 1 m/s 742 mmHg 82%
22:00 +19°C° 0 mm 1 m/s 742 mmHg 86%
23:00 +19°C° 0 mm 1 m/s 742 mmHg 88%
Mostrar mais

Necessitamos do seu Consentimento

A Meteoprog e os seus Fornecedores de Serviços podem armazenar e aceder a dados pessoais como cookies, identificadores do dispositivo ou outras tecnologias semelhantes existentes no seu dispositivo e processar estes dados para personalizar conteúdos e anúncios, assim como funcionalidades nas redes sociais e análise de tráfego.

  • Armazenar e/ou aceder a informações no seu dispositivo

    Os cookies, identificadores do dispositivo ou outras informações podem ser armazenados ou acedidos no seu dispositivo, para os fins acima indicados.

  • Anúncios e conteúdos personalizados, medição de anúncios e conteúdos, dados sobre o público-alvo e desenvolvimento de produtos

    Os anúncios e os conteúdos podem ser personalizados com base num perfil. Podem ser adicionados dados adicionais para uma maior personalização dos anúncios e dos conteúdos. A eficácia dos anúncios e dos conteúdos pode ser medida. Podem ser obtidas informações sobre o público que visualizou os anúncios e os conteúdos. Estes dados podem ser usados para desenvolver ou melhorar sistemas, softwares ou a experiência do utilizador.

Ao clicar em "Eu concordo”, permitirá o uso de cookies, identificadores do dispositivo e web beacons mencionados ou outras tecnologias semelhantes. As configurações do navegador do seu dispositivo podem ser alteradas.

Para certos fins, podem ser invocados interesses legítimos ao invés de consentimento. Pode ler mais informação sobre este assunto na nossa Política de Privacidade e Cookies.